Regional Weather Roundup
Issued by NWS

Home | Current Version | Previous Version | Text Only | Print | Product List | Glossary On
Versions: 1 2 3 4 5 6 7 8 9 10 11 12 13 14 15 16 17 18 19 20 21 22 23 24 25 26 27 28 29 30 31 32 33 34 35 36 37 38 39 40 41 42 43 44 45 46 47 48 49 50
000
ASPQ40 PGUM 211410
RWRPQ
WEATHER ROUNDUP FOR THE MARIANAS AND MICRONESIA
NATIONAL WEATHER SERVICE TIYAN GU
1200 AM CHST SUN APR 22 2018

GUZ001>004-211500-
MARIANA ISLANDS-

CITY           SKY/WX    TMP DP  RH WIND       PRES   REMARKS
GUAM AIRPORT   CLEAR     81  73  78 E13       29.89F
ANDERSEN AFB   MOCLDY    79  72  78 E16       29.90F
ROTA AIRPORT   NOT AVBL
TINIAN AP      NOT AVBL
SAIPAN AP      MOCLDY    81  72  74 NE16G24   29.90F

$$

PMZ161-211500-
REPUBLIC OF PALAU-

CITY           SKY/WX    TMP DP  RH WIND       PRES   REMARKS
KOROR AP       NOT AVBL
KOROR WSO      PTCLDY    82  77  83 N6        29.84R HX  91

$$

PMZ171>174-211500-
FEDERATED STATES OF MICRONESIA-

CITY           SKY/WX    TMP DP  RH WIND       PRES   REMARKS
YAP AIRPORT    MOCLDY    81  73  78 VRB3      29.84S
CHUUK AP       CLOUDY    82  79  89 CALM      29.77F HX  93
POHNPEI AP     CLOUDY    82  75  78 NE8       29.77F
POHNPEI WSO    CLOUDY    82  75  78 NE5       29.80F
KOSRAE AP      NOT AVBL

$$

PMZ181-211500-
REPUBLIC OF THE MARSHALL ISLANDS-

CITY           SKY/WX    TMP DP  RH WIND       PRES   REMARKS
KWAJALEIN AP   PTCLDY    81  77  89 E14       29.77F
MAJURO AP      NOT AVBL
MAJURO WSO     MOCLDY    82  75  78 E9        29.75F

$$




USA.gov is the U.S. government's official web portal to all federal, state and local government web resources and services.